Weather History for Milton, FL

Change the Weather History Date:

Thursday, May 24, 2012

  Actual Average (KNSE) Record (KNSE)
Temperature  
Mean Temperature 78 °F -  
Max Temperature 91 °F 83 °F 95 °F (2005)
Min Temperature 66 °F 64 °F 57 °F (2002)
Cooling Degree Days 13    
Growing Degree Days 28 (Base 50)    
Moisture  
Dew Point 67 °F    
Average Humidity 80    
Maximum Humidity 100    
Minimum Humidity 33    
Precipitation  
Precipitation 0.00 in - - ()
Sea Level Pressure  
Sea Level Pressure 29.87 in    
Wind  
Wind Speed 1 mph (South)    
Max Wind Speed 16 mph    
Max Gust Speed 23 mph    
Visibility 7 miles    
Events Fog    
Averages and records for this station are not official NWS values.
T = Trace of Precipitation, MM = Missing Value Source: NWS Daily Summary

Daily Weather History Graph

Daily Weather History Graph

Search for Another Location

Airport:

Trip Planner

Search our weather history database for the weather conditions in past years. The results will help you decide how hot, cold, wet, or windy it might be!

Date:

Astronomy

May. 24, 2012 Rise Set
Actual Time 5:48 AM CDT 7:41 PM CDT
Civil Twilight 5:21 AM CDT 8:08 PM CDT
Nautical Twilight 4:48 AM CDT 8:41 PM CDT
Astronomical Twilight 4:14 AM CDT 9:16 PM CDT
Moon 8:45 AM CDT (5/24) 10:45 PM CDT (5/24)
Length of Visible Light 14h 47m
Length of Day
13h 53m
Waxing Crescent, 12% of the Moon is Illuminated
May 24
Waxing Crescent
May 28
First Quarter
Jun 4
Full
Jun 11
Last Quarter
Jun 19
New

Hourly Weather History & Observations

Time (CDT) Temp. Heat Index Dew Point Humidity Pressure Visibility Wind Dir Wind Speed Gust Speed Precip Events Conditions
12:43 AM 73.4 °F - 71.6 °F 94% 29.87 in 7.0 mi Calm Calm - N/A   Mostly Cloudy
12:56 AM 73.9 °F - 71.1 °F 91% 29.83 in 7.0 mi Calm Calm - N/A   Mostly Cloudy
1:06 AM 73.4 °F - 71.6 °F 94% 29.87 in 8.0 mi Calm Calm - N/A   Scattered Clouds
1:56 AM 72.0 °F - 70.0 °F 93% 29.81 in 6.0 mi Calm Calm - N/A   Partly Cloudy
2:56 AM 71.1 °F - 69.1 °F 93% 29.81 in 7.0 mi Calm Calm - N/A   Clear
3:56 AM 70.0 °F - 69.1 °F 97% 29.81 in 6.0 mi Calm Calm - N/A   Clear
4:56 AM 66.9 °F - 64.9 °F 93% 29.81 in 4.0 mi Calm Calm - N/A   Clear
5:07 AM 66.2 °F - 64.4 °F 94% 29.86 in 2.5 mi Calm Calm - N/A   Clear
5:21 AM 66.2 °F - 64.4 °F 94% 29.86 in 1.0 mi Calm Calm - N/A   Clear
5:28 AM 68.0 °F - 66.2 °F 94% 29.87 in 0.8 mi Calm Calm - N/A   Clear
5:32 AM 69.8 °F - 66.2 °F 88% 29.87 in 2.0 mi Calm Calm - N/A   Clear
5:34 AM 69.8 °F - 66.2 °F 88% 29.87 in 4.0 mi Calm Calm - N/A   Partly Cloudy
5:39 AM 69.8 °F - 66.2 °F 88% 29.87 in 1.2 mi Calm Calm - N/A   Scattered Clouds
5:41 AM 68.0 °F - 66.2 °F 94% 29.87 in 0.8 mi Calm Calm - N/A   Mist
5:54 AM 66.2 °F - 66.2 °F 100% 29.88 in 0.2 mi Calm Calm - N/A Fog Fog
5:56 AM 66.0 °F - 64.9 °F 96% 29.84 in 0.2 mi Calm Calm - N/A Fog Fog
6:06 AM 68.0 °F - 66.2 °F 94% 29.89 in 2.0 mi Calm Calm - N/A   Mostly Cloudy
6:20 AM 69.8 °F - 68.0 °F 94% 29.89 in 3.0 mi Calm Calm - N/A   Mostly Cloudy
6:28 AM 69.8 °F - 68.0 °F 94% 29.89 in 5.0 mi Calm Calm - N/A   Mostly Cloudy
6:40 AM 69.8 °F - 68.0 °F 94% 29.90 in 4.0 mi Calm Calm - N/A   Partly Cloudy
6:56 AM 72.0 °F - 69.1 °F 91% 29.86 in 9.0 mi Calm Calm - N/A   Clear
7:56 AM 77.0 °F - 73.0 °F 88% 29.87 in 10.0 mi Calm Calm - N/A   Partly Cloudy
8:56 AM 81.0 °F 84.9 °F 71.1 °F 72% 29.88 in 10.0 mi SSE 4.6 mph - N/A   Mostly Cloudy
9:29 AM 80.6 °F 83.9 °F 69.8 °F 70% 29.93 in 10.0 mi Calm Calm - N/A   Mostly Cloudy
9:56 AM 81.0 °F 84.1 °F 69.1 °F 67% 29.88 in 10.0 mi WNW 3.5 mph - N/A   Mostly Cloudy
10:56 AM 84.9 °F 87.6 °F 66.9 °F 55% 29.89 in 10.0 mi Variable 3.5 mph - N/A   Partly Cloudy
11:56 AM 88.0 °F 88.7 °F 63.0 °F 43% 29.90 in 10.0 mi SSE 6.9 mph - N/A   Partly Cloudy
12:56 PM 90.0 °F 88.6 °F 57.0 °F 33% 29.88 in 10.0 mi Variable 4.6 mph - N/A   Clear
1:56 PM 87.1 °F 91.3 °F 69.1 °F 55% 29.88 in 10.0 mi South 16.1 mph 23.0 mph N/A   Clear
2:56 PM 86.0 °F 87.6 °F 64.9 °F 49% 29.87 in 10.0 mi SSW 12.7 mph 17.3 mph N/A   Clear
3:56 PM 88.0 °F 87.6 °F 60.1 °F 39% 29.85 in 10.0 mi South 8.1 mph - N/A   Clear
4:56 PM 86.0 °F 88.8 °F 66.9 °F 53% 29.84 in 10.0 mi South 11.5 mph - N/A   Clear
5:56 PM 84.0 °F 86.5 °F 66.9 °F 56% 29.85 in 10.0 mi South 10.4 mph - N/A   Clear
6:56 PM 81.0 °F 83.8 °F 68.0 °F 65% 29.86 in 10.0 mi SSW 6.9 mph - N/A   Clear
7:56 PM 77.0 °F - 69.1 °F 76% 29.86 in 10.0 mi South 5.8 mph - N/A   Clear
8:56 PM 75.9 °F - 70.0 °F 82% 29.87 in 10.0 mi SSW 3.5 mph - N/A   Clear
9:56 PM 73.9 °F - 70.0 °F 87% 29.90 in 10.0 mi Calm Calm - N/A   Clear
10:56 PM 73.0 °F - 69.1 °F 87% 29.91 in 10.0 mi Calm Calm - N/A   Clear
11:56 PM 71.1 °F - 69.1 °F 93% 29.92 in 8.0 mi Calm Calm - N/A   Clear